Location: La Silve
(44.2414°N, 5.8889°E)
Time: 12:48:33
(UTC+00:00)

Daily predictions for brighter satellites

Satellite Brightness Start Highest point End
(mag) Time Altitude Azimuth Time Altitude Azimuth Time Altitude Azimuth
H-2A R/B 2.9 16:26:05 10° S 16:29:55 83° WSW 16:33:51 10° NNW
Cosmos 1633 Rocket 3.5 16:26:58 10° N 16:31:06 40° ENE 16:35:10 10° SSE
Cosmos 1933 3.7 16:27:45 10° SSE 16:31:35 43° E 16:35:28 10° NNE
Spot 2 4.4 16:27:28 10° SSE 16:32:11 88° WSW 16:37:12 10° NNW
Meteor 2-12 Rocket 4.4 16:29:09 10° N 16:35:20 78° E 16:41:25 10° SSE
Cosmos 2218 Rocket 4.3 16:31:41 10° N 16:37:34 45° ENE 16:43:26 10° SSE
Cosmos 1867 4.1 16:32:40 10° SW 16:38:02 58° NW 16:43:26 10° NNE
Cosmos 2366 rocket 4.3 16:32:38 10° N 16:38:32 44° ENE 16:44:21 10° SSE
Meteor 1-25 Rocket 4.4 16:33:50 10° N 16:39:23 54° ENE 16:44:57 10° SSE
ERS-2 3.7 16:37:00 10° NE 16:39:27 17° E 16:41:54 10° SE
Envisat 3.1 16:36:32 10° SSE 16:41:38 88° W 16:46:44 10° NNW
Lacrosse 5 rocket 1.9 16:43:09 10° WSW 16:46:41 43° NW 16:50:08 10° NE
Cosmos 773 Rocket 4.1 16:42:33 10° S 16:47:44 64° ESE 16:52:59 10° NNE
SL-23 DEB 4.2 16:44:43 10° SW 16:48:04 56° SE 16:52:39 12° ENE
YAOGAN 6 2.7 16:47:07 10° S 16:50:45 82° WSW 16:54:21 10° NNW
Cosmos 1606 3.6 16:49:30 10° SSW 16:53:18 53° WNW 16:57:07 10° N
Cosmos 2297 3.9 16:49:16 10° NNW 16:54:58 78° WSW 17:00:40 10° SSE
OE (NEXTSAT) 4.4 16:52:22 10° W 16:55:47 62° N 16:58:30 15° E
AQUARIUS 4.1 16:51:26 10° SSE 16:55:52 66° ENE 17:00:20 10° N
FengYun 1-2 T 4.3 16:50:32 10° SE 16:55:54 54° ENE 17:01:14 10° N
SL-16 R/B 2.5 16:52:08 10° SSW 16:57:47 73° WNW 17:03:27 10° NNE
CZ-4B R/B 2.1 16:56:25 11° NE 16:59:03 30° E 17:01:54 10° SSE
Landsat 5 4.1 16:55:46 10° N 17:00:12 64° WNW 17:04:39 10° SSW
BREEZE-M DEB (TANK) 1.6 16:59:41 10° WSW 17:02:20 68° NNW 17:03:26 22° NE
USA 215 4.2 16:59:20 13° ENE 17:04:17 31° SE 17:09:57 10° S
SMAP 3.1 17:00:14 10° SSE 17:04:53 88° WSW 17:09:34 10° NNW
Cosmos 1500 4.3 17:03:30 10° NNE 17:06:35 23° ENE 17:09:41 10° SE
YAOGAN 1 4.0 17:09:19 17° NE 17:09:19 17° NE 17:11:41 10° NNE
Cosmos 1656 Rocket 4.3 17:05:53 10° N 17:10:56 32° NE 17:15:54 10° ESE
Cosmos 1151 Rocket 3.0 17:07:24 10° S 17:11:40 83° W 17:15:58 10° N
Cosmos 1470 Rocket 3.4 17:09:21 10° N 17:13:39 64° E 17:17:56 10° SSE
Cosmos 864 Rocket 4.5 17:13:14 10° N 17:19:34 86° E 17:25:48 10° S
Cosmos 1515 Rocket 3.5 17:15:23 10° S 17:19:41 60° E 17:24:03 10° NNE
Cosmos 2263 4.4 17:14:30 10° NNW 17:19:55 47° ENE 17:25:17 10° SE
CZ-2C R/B 3.7 17:16:31 10° SE 17:20:46 29° ENE 17:24:53 10° N
SL-8 Rocket 4.3 17:16:32 10° NNW 17:22:46 71° W 17:28:59 10° S
Cosmos 482 Debris 3.2 17:21:30 10° WNW 17:23:15 50° SW 17:23:46 35° SSE
Cosmos 1238 Rocket 3.9 17:22:11 10° NNE 17:25:47 29° ENE 17:29:59 10° SE
COSMO-SKYMED 1 2.8 17:23:06 13° NNE 17:26:46 47° E 17:30:56 10° S
Cosmos 1689 Rocket 3.9 17:29:01 18° SE 17:29:01 18° SE 17:30:10 10° SSE
USA 281 3.7 17:21:56 10° ESE 17:27:52 38° NE 17:33:48 10° N
X-37B 0.5 17:25:19 10° WSW 17:28:30 83° SSE 17:29:28 41° E
Nadezhda 3 Rocket 4.3 17:23:04 10° SSE 17:29:03 45° E 17:35:04 10° NNE
SAR-Lupe-4 3.9 17:29:13 31° ENE 17:30:19 41° E 17:33:43 10° S
Meteor 2-6 Rocket 4.4 17:26:46 10° SSE 17:32:05 48° E 17:37:14 10° NNE
Helios 1A Rocket 4.0 17:33:25 25° NE 17:33:25 25° NE 17:35:46 10° N
Cosmos 2228 Rocket 3.5 17:28:05 10° SSE 17:32:18 40° E 17:34:29 24° NE
Meteor 1-4 Rocket 3.0 17:30:07 10° SSW 17:33:40 61° W 17:37:11 10° N
H-2A R/B 2.8 17:35:17 28° ENE 17:35:38 28° ENE 17:39:57 10° N
Cosmos 1812 3.1 17:32:33 10° SSE 17:36:08 40° E 17:36:36 38° ENE
USA 267 3.9 17:34:11 24° ENE 17:37:26 39° NNE 17:43:23 10° NW
Cosmos 1939 Rocket 2.6 17:34:15 10° SSE 17:38:06 76° ENE 17:42:03 10° N
Cosmos 1821 Rocket 4.0 17:32:21 10° N 17:38:30 55° ENE 17:44:42 10° SSE
CZ-4 R/B 4.5 17:35:54 10° SSE 17:39:55 54° ENE 17:43:58 10° N
CZ-4 R/B 2.2 17:41:27 31° NE 17:41:27 31° NE 17:44:09 10° N
Meteor 1-11 Rocket 4.3 17:36:09 10° N 17:41:29 37° ENE 17:46:53 10° SE
BREEZE-M DEB (TANK) 3.2 17:39:12 10° SW 17:42:33 28° SSE 17:42:53 27° SE
PSLV R/B 4.1 17:42:20 40° ENE 17:43:07 46° E 17:47:01 10° S
Cosmos 44 Rocket 3.7 17:38:26 10° NNW 17:43:25 45° NE 17:45:09 33° E
Cosmos 1933 Rocket 3.5 17:39:14 10° N 17:43:44 89° W 17:48:11 10° S
IRS-1C Rocket 4.0 17:39:11 10° SSE 17:44:26 72° ENE 17:49:42 10° N
Cosmos 546 4.5 17:41:31 10° WSW 17:45:21 90° NNW 17:46:15 51° ENE
SAR-Lupe-1 3.9 17:46:35 50° NE 17:47:19 65° ESE 17:50:52 10° S
Lacrosse 4 Rocket 3.1 17:45:27 10° SSE 17:46:59 18° SE 17:46:59 18° SE
Cosmos 1680 Rocket 3.8 17:44:10 10° S 17:49:07 43° ESE 17:50:18 37° ENE
SKYMED 3 4.4 17:47:24 16° NNE 17:50:49 86° ESE 17:55:09 10° SSW
SL-24 R/B 3.5 17:49:33 38° NNE 17:50:53 75° ESE 17:54:31 10° S
Cosmos 1603 3.6 17:47:42 10° SSW 17:53:19 87° ESE 17:56:56 23° NNE
CZ-2D R/B 3.1 17:51:10 10° SSE 17:54:58 83° ENE 17:58:50 10° N
Cosmos 1943 3.1 17:51:02 10° SSW 17:56:41 82° ESE 17:59:58 27° NNE
H-2A R/B 4.4 17:55:03 10° NNW 17:58:15 21° WNW 18:01:30 10° WSW
Cosmos 2369 Rocket 2.6 17:54:03 10° NNW 17:59:42 66° WSW 18:05:15 10° SSE
Cosmos 1943 Rocket 3.6 17:55:41 10° NW 18:00:48 39° WSW 18:05:56 10° S
Okean O Rocket 3.9 17:58:18 10° SSW 18:01:54 25° W 18:05:33 10° NW
Meteor 1-5 Rocket 4.2 17:56:05 10° N 18:02:01 84° E 18:07:44 10° SSE
Cosmos 1782 4.4 17:58:30 10° SW 18:02:07 34° WNW 18:05:48 10° N
Okean-O 2.5 17:58:54 10° SSE 18:03:18 70° ENE 18:07:43 10° N
Cosmos 1461 3.9 17:59:15 10° S 18:02:44 36° SE 18:02:44 36° SE
ARGOS 4.4 18:08:31 25° NNE 18:08:31 25° NNE 18:11:02 10° N
CENTAUR R/B 2.7 18:01:19 10° S 18:06:48 47° ESE 18:07:44 44° E
ISS -1.9 18:04:10 10° NW 18:05:55 23° NNW 18:05:55 23° NNW
Cosmos 2112 Rocket 4.0 18:04:30 10° S 18:09:39 56° ESE 18:09:53 56° E
Cosmos 2056 Rocket 4.4 18:06:10 10° N 18:09:29 32° NNE 18:09:29 32° NNE
ERS-2 3.7 18:10:45 17° NNW 18:13:06 34° WNW 18:16:25 10° SW
SKYMED 2 4.3 18:11:44 18° N 18:14:51 53° WNW 18:19:03 10° SSW
NOSS 3-2 (C) 3.4 18:09:33 10° SSW 18:14:54 51° ESE 18:15:09 51° ESE
Cosmos 1869 Rocket 3.7 18:13:59 10° N 18:22:43 11° S 18:22:56 10° S
BREEZE-M DEB (TANK) 3.0 18:11:56 10° WSW 18:19:58 83° SSE 18:19:59 83° SSE
Meteor 1-27 Rocket 3.7 18:15:20 10° S 18:20:11 57° ESE 18:20:11 57° ESE
Meteor 1-10 Rocket 4.3 18:19:35 10° SSW 18:25:14 77° WNW 18:28:49 23° N
Lacrosse 5 rocket 3.6 18:24:39 10° NW 18:25:53 13° NNW 18:25:53 13° NNW
Cosmos 371 Rocket 4.5 18:25:24 10° NNW 18:28:01 31° N 18:28:01 31° N
CZ-4B R/B 4.3 18:29:34 11° NW 18:31:02 14° WNW 18:32:42 10° W
NOSS 3-2 (A) 3.5 18:34:37 10° SW 18:40:15 69° NW 18:41:26 55° N
YAOGAN 1 4.2 18:46:29 29° NW 18:46:29 29° NW 18:48:47 10° NNW
Cosmos 1535 Rocket 4.3 18:39:50 10° N 18:45:59 86° W 18:52:06 10° S
USA 215 3.2 18:46:42 66° NNE 18:47:41 80° NW 18:54:14 10° WSW
MOS 1 Rocket 4.3 18:52:43 37° NNW 18:54:32 52° WNW 18:59:42 10° SSW
USA 238 DEB 3.9 18:53:08 10° SW 18:59:39 62° NW 19:00:34 57° NNW
USA 238 3.9 18:53:13 10° SW 18:59:45 63° NW 19:00:39 58° NNW
CZ-2C R/B 4.4 18:56:03 10° SSW 19:00:34 34° W 19:04:57 10° NNW
USA 281 4.0 19:05:55 10° S 19:12:11 48° WSW 19:18:32 10° NW
H-2A R/B 3.4 19:15:55 36° WNW 19:15:55 36° WNW 19:19:44 10° NNW
CZ-4 R/B 4.3 19:17:28 14° WNW 19:17:28 14° WNW 19:18:24 10° NW
USA 267 3.6 19:21:32 57° NW 19:21:32 57° NW 19:26:35 10° NW
CENTAUR R/B 4.2 19:51:51 10° WSW 19:54:58 28° W 19:54:58 28° W
